Simultaneous Nadir Overpasses (SNOs) Predictions

Prediction of SNOs between METOP-B and NOAA-19 Satellite Orbit:

Table of predicted SNOs for the next 14.0 days since TLE Epoch: 5/1/2016
Index Date (METOP-B) Time (METOP-B) Lat,Lon (METOP-B) SZA (METOP-B ) Date (NOAA-19) Time (NOAA-19) Lat,Lon (NOAA-19) SZA (NOAA-19 ) Distance(km) Time Diff (sec)
1 05/03/2016 20:29:29 -75.96, 52.66 120.11 05/03/2016 20:28:17 -75.96, 52.78 120.10 3.24 72
2 05/03/2016 21:20:08 75.98,-139.91 59.91 05/03/2016 21:19:14 75.99,-140.06 59.92 4.01 54
3 05/03/2016 22:10:51 -75.94, 27.26 120.15 05/03/2016 22:10:19 -75.96, 27.29 120.13 2.19 32
4 05/03/2016 23:01:31 75.92,-165.47 59.83 05/03/2016 23:01:15 75.94,-165.39 59.85 3.18 16
5 05/03/2016 23:52:13 -75.92, 1.87 120.19 05/03/2016 23:52:20 -75.91, 1.96 120.20 2.89 7
6 05/04/2016 00:42:53 75.90, 169.14 59.79 05/04/2016 00:43:17 75.94, 169.12 59.82 3.79 24
7 05/04/2016 01:33:35 -75.91, -23.53 120.22 05/04/2016 01:34:22 -75.90, -23.53 120.22 0.16 47
8 05/04/2016 02:24:15 75.89, 143.74 59.75 05/04/2016 02:25:18 75.89, 143.79 59.75 1.41 63
9 05/04/2016 03:15:08 -75.38, -50.56 120.77 05/04/2016 03:16:13 -75.40, -47.34 120.74 90.28 65
10 05/14/2016 11:34:44 -76.20,-172.82 122.67 05/14/2016 11:33:32 -76.20,-174.14 122.68 35.20 72
11 05/14/2016 12:25:28 75.99, -6.18 57.11 05/14/2016 12:24:25 76.02, -6.21 57.14 3.00 63
12 05/14/2016 13:16:10 -76.00, 161.15 122.90 05/14/2016 13:15:29 -75.97, 161.18 122.92 2.44 41
13 05/14/2016 14:06:50 75.97, -31.58 57.08 05/14/2016 14:06:26 75.97, -31.54 57.07 1.24 24
14 05/14/2016 14:57:32 -75.98, 135.75 122.93 05/14/2016 14:57:31 -75.97, 135.68 122.94 2.13 1
15 05/14/2016 15:48:12 75.96, -56.98 57.04 05/14/2016 15:48:28 75.96, -57.03 57.05 1.67 16
16 05/14/2016 16:38:55 -75.91, 110.20 123.01 05/14/2016 16:39:32 -75.92, 110.35 123.00 4.04 37
17 05/14/2016 17:29:34 75.94, -82.38 57.01 05/14/2016 17:30:29 75.92, -82.37 56.99 2.67 55
18 05/14/2016 18:20:19 -75.80, 84.50 123.14 05/14/2016 18:21:32 -75.83, 85.17 123.11 18.49 73




NCC Satellite Simultaneous Nadir Overpasses (SN
